Location: Ida Center
(41.8662°N, 83.5713°W)
Time: 05:01:21
(UTC+00:00)

Cosmos 1933 - Pass Details

Date: 17 November 2019
Orbit: 546 x 565 km, 82.5° (Epoch: 07 December)

Event Time Altitude Azimuth Distance (km) Brightness Sun altitude
Rises 23:40:50 0° 168° (SSE) 2,739 6.9 -16.5°
Reaches altitude 10° 23:43:06 10° 160° (SSE) 1,845 5.9 -16.9°
Maximum altitude 23:46:52 38° 92° (E) 861 3.8 -17.6°
Enters shadow 23:46:55 38° 91° (E) 861 3.8 -17.6°
